Weather History for Sigonella, Italy

Change the Weather History Date:

Sunday, February 10, 2013

  Actual Average Record
Temperature  
Mean Temperature 43 °F -  
Max Temperature 54 °F 62 °F 73 °F (2014)
Min Temperature 32 °F 42 °F 32 °F (2011)
Degree Days  
Heating Degree Days 22    
Moisture  
Dew Point 34 °F    
Average Humidity 78    
Maximum Humidity 100    
Minimum Humidity 26    
Precipitation  
Precipitation 0.00 in 0.05 in - ()
Sea Level Pressure  
Sea Level Pressure 29.94 in    
Wind  
Wind Speed 8 mph ()    
Max Wind Speed 21 mph    
Max Gust Speed 31 mph    
Visibility 6.1 miles    
Events Rain    
Averages and records for this station are not official NWS values.
T = Trace of Precipitation, MM = Missing Value Source: Averaged Metar Reports

Daily Weather History Graph

Daily Weather History Graph

Search for Another Location

Airport:

Trip Planner

Search our weather history database for the weather conditions in past years. The results will help you decide how hot, cold, wet, or windy it might be!

Date:

Astronomy

Feb. 10, 2013 Rise Set
Actual Time 6:55 AM CET 5:34 PM CET
Civil Twilight 6:28 AM CET 6:01 PM CET
Nautical Twilight 5:57 AM CET 6:32 PM CET
Astronomical Twilight 5:26 AM CET 7:02 PM CET
Moon 6:35 AM CET (2/10) 6:03 PM CET (2/10)
Length of Visible Light 11h 33m
Length of Day
10h 39m
Waxing Crescent, 0% of the Moon is Illuminated
Feb 10
Waxing Crescent
Feb 17
First Quarter
Feb 25
Full
Mar 4
Last Quarter
Mar 11
New

Hourly Weather History & Observations

Time (CET) Temp. Windchill Dew Point Humidity Pressure Visibility Wind Dir Wind Speed Gust Speed Precip Events Conditions
12:55 AM 39.2 °F 33.6 °F 37.4 °F 93% 29.92 in - WNW 8.1 mph - N/A   Clear
1:00 AM 39 °F - 36 °F 87% 29.94 in 6 mi WNW 8.1 mph - -  
1:55 AM 37.4 °F - 37.4 °F 100% 29.95 in 6.2 mi North 2.3 mph - N/A   Partly Cloudy
2:55 AM 37.4 °F - 37.4 °F 100% 29.95 in 6.2 mi West 2.3 mph - N/A   Partly Cloudy
3:55 AM 32.0 °F 28.7 °F 32.0 °F 100% 29.95 in 6.2 mi SW 3.5 mph - N/A   Partly Cloudy
4:00 AM 32 °F - 32 °F 100% 29.96 in 6 mi SW 3.5 mph - -   Scattered Clouds
4:55 AM 32.0 °F 28.7 °F 32.0 °F 100% 29.92 in 6.2 mi WNW 3.5 mph - N/A   Scattered Clouds
5:55 AM 33.8 °F 28.6 °F 33.8 °F 100% 29.92 in 6.2 mi West 5.8 mph - N/A   Scattered Clouds
6:55 AM 35.6 °F 30.7 °F 35.6 °F 100% 29.92 in 6.2 mi West 5.8 mph - N/A   Scattered Clouds
7:00 AM 36 °F - 36 °F 98% 29.94 in 6 mi West 5.8 mph - -   Scattered Clouds
7:55 AM 35.6 °F 31.7 °F 35.6 °F 100% 29.92 in 6.2 mi NW 4.6 mph - N/A   Scattered Clouds
8:55 AM 42.8 °F 36.2 °F 35.6 °F 76% 29.92 in 6.2 mi NW 12.7 mph - N/A   Scattered Clouds
9:55 AM 48.2 °F - 39.2 °F 71% 29.92 in 6.2 mi West 17.3 mph - N/A   Scattered Clouds
10:00 AM 49 °F - 38 °F 57% 29.94 in 6 mi West 17.3 mph - -   Partly Cloudy
10:55 AM 50.0 °F - 33.8 °F 54% 29.92 in 6.2 mi West 15.0 mph - N/A   Scattered Clouds
11:55 AM 51.8 °F - 30.2 °F 44% 29.92 in 6.2 mi WNW 20.7 mph - N/A   Scattered Clouds
12:55 PM 51.8 °F - 26.6 °F 38% 29.89 in 6.2 mi WNW 19.6 mph - N/A   Mostly Cloudy
1:00 PM 51 °F - 27 °F 26% 29.90 in 6 mi WNW 19.6 mph - -   Partly Cloudy
1:55 PM 50.0 °F - 26.6 °F 40% 29.86 in 6.2 mi NW 17.3 mph - N/A Rain Light Rain
2:55 PM 46.4 °F 39.2 °F 30.2 °F 53% 29.89 in 6.2 mi West 18.4 mph - N/A   Mostly Cloudy
3:55 PM 46.4 °F 39.8 °F 37.4 °F 71% 29.89 in 6.2 mi NW 16.1 mph 31.1 mph N/A Rain Light Rain
4:00 PM 46 °F - 38 °F 66% 29.91 in 6 mi NW 16.1 mph - - Rain Light Rain
4:55 PM 48.2 °F - 37.4 °F 66% 29.92 in 6.2 mi WNW 19.6 mph - N/A   Mostly Cloudy
5:55 PM 44.6 °F 37.8 °F 33.8 °F 66% 29.92 in 6.2 mi West 15.0 mph - N/A   Scattered Clouds
6:55 PM 41.0 °F 35.2 °F 35.6 °F 81% 29.92 in 6.2 mi West 9.2 mph - N/A   Scattered Clouds
7:00 PM 41 °F - 35 °F 72% 29.94 in 6 mi West 9.2 mph - -   Partly Cloudy
7:55 PM 41.0 °F 35.2 °F 35.6 °F 81% 29.95 in 6.2 mi WNW 9.2 mph - N/A   Scattered Clouds
8:55 PM 39.2 °F 35.0 °F 37.4 °F 93% 30.01 in 6.2 mi West 5.8 mph - N/A   Scattered Clouds
9:55 PM 37.4 °F 32.1 °F 37.4 °F 100% 30.01 in - West 6.9 mph - N/A   Clear
10:00 PM 38 °F - 36 °F 92% 30.02 in 6 mi West 6.9 mph - -  
10:55 PM 39.2 °F 33.6 °F 33.8 °F 81% 30.01 in - WNW 8.1 mph - N/A   Clear
11:55 PM 39.2 °F 32.0 °F 33.8 °F 81% 30.04 in - WNW 11.5 mph - N/A   Clear